Regional Weather Roundup
Issued by NWS Portland, ME

Home | Current Version | Previous Version | Text Only | Print | Product List | Glossary On
Versions: 1 2 3 4 5 6 7 8 9 10 11 12 13 14 15 16 17 18 19 20 21 22 23 24 25 26 27 28 29 30 31 32 33 34 35 36 37 38 39 40 41 42 43 44 45 46 47 48 49 50
507
ASUS41 KGYX 082110
RWRGYX
WEATHER ROUNDUP FOR MAINE AND NEW HAMPSHIRE
NATIONAL WEATHER SERVICE GRAY ME
400 PM EST THU DEC 08 2016

MEZ002-005-006-010-012-015-018-020-021-024-026-027-029-082200-
MAINE

CITY           SKY/WX    TMP DP  RH WIND       PRES   REMARKS
PORTLAND       MOCLDY    39  26  59 SW7       29.73F
SANFORD        CLOUDY    38  28  67 W8        29.75R
BAR HARBOR     CLOUDY    37  32  82 W5        29.70S
WISCASSET      CLEAR     38  26  62 CALM      29.73S
ROCKLAND       CLEAR     36  30  79 W5        29.70S
FRYEBURG       CLOUDY    36  25  64 S3        29.71S
LEWISTONAUBURN PTCLDY    38  26  62 SW5       29.71S
AUGUSTA        CLOUDY    37  28  70 W5        29.70S
WATERVILLE     CLOUDY    36  30  79 SW3       29.67S
BANGOR         CLOUDY    32  30  92 CALM      29.69F
GREENVILLE       N/A     28  27  96 CALM      29.60F
MILLINOCKET    CLOUDY    33  29  85 VRB3      29.66F
HOULTON        CLOUDY    31  29  92 S5        29.64F
PRESQUE ISLE   CLOUDY    28  26  92 S5        29.63F
FRENCHVILLE    CLOUDY    30  26  85 SE6       29.57F
CARIBOU        CLOUDY    30  26  85 SW6       29.61F
$$

NHZ002-005-008-009-011-012-014-082200-
NEW HAMPSHIRE

CITY           SKY/WX    TMP DP  RH WIND       PRES   REMARKS
PORTSMOUTH     MOCLDY    40  27  58 W7        29.75S
ROCHESTER      CLOUDY    38  25  59 VRB6      29.75R
NASHUA         PTCLDY    39  25  57 W7        29.79R
MANCHESTER     PTCLDY    40  23  50 NW6       29.77R
CONCORD        CLOUDY    40  24  53 W9        29.76S
LACONIA        CLOUDY    37  25  61 SW12      29.74S
PLYMOUTH         N/A     34  26  72 W3        29.73S
BERLIN         CLOUDY    31  23  72 CALM      29.68S
WHITEFIELD     CLOUDY    32  25  75 SW3       29.70S
JAFFREY        PTCLDY    35  22  58 VRB3      29.77R
KEENE          MOCLDY    38  23  55 SW8       29.80R
LEBANON        CLOUDY    37  23  56 SW9       29.75R
MT WASHINGTON  SNOW      10  10 100 W36G43      N/A  VSB 0   WCI -13
$$

VTZ005-007-008-082200-
VERMONT

CITY           SKY/WX    TMP DP  RH WIND       PRES   REMARKS
ST JOHNSBURY     N/A     33  26  75 MISG      29.71R
MONTPELIER     MOCLDY    30  25  81 W7        29.75F
BURLINGTON     MOCLDY    37  22  54 W9        29.76R
$$

MAZ007-012-024-CTZ003-RIZ002-NYZ038-NYZ072-082200-
SOUTHERN NEW ENGLAND AND NY

CITY           SKY/WX    TMP DP  RH WIND       PRES   REMARKS
BOSTON         MOCLDY    41  27  57 W10G21    29.80S
WORCESTER      PTCLDY    34  27  75 W8        29.78R
NANTUCKET      CLOUDY    46  28  49 W16G24    29.80S
PROVIDENCE     PTCLDY    41  28  60 W9        29.82R
HARTFORD       MOCLDY    39  29  67 NW15G23   29.84R
ALBANY         PTCLDY    36  22  56 W13       29.86R
NEW YORK CITY  CLOUDY    44  18  35 W14G23    29.90R
$$

ANZ081-ANZ082-ANZ150-NHZ014-MEZ023>029-082200-
COASTAL MARINE OBSERVATIONS

STATION/POSITION TIME  TEMP    WIND        PRES    WAVE
                       AIR SEA DIR/SP/G            HT/PER
                 (UTC) (F)     (DEG/KT/KT) (MB)    (FT/S)
MOUNT DESERT ROC 2100   42                 1005.5F
MATINICUS ROCK   2000   42     260/ 23/ 26 1005.3F
ISLE OF SHOALS   2000   41     260/ 13/ 14 1007.6R
JEFFREYS LEDGE   2038      51                N/A     3/11
CASHES LEDGE BUO 2050   44 50  230/ 14/ 19 1006.4F   5/ 5
GEORGES BANK BUO 2050   48 51              1007.8F   4/10
$$

.............KEY..............
   WCI - WIND CHILL
   TC  - TEMPERATURE IN CELSIUS
   VSB - VISIBILITY IN MILES
   HX  - HEAT INDEX
   FAIR- INDICATES FEW OR NO CLOUDS BELOW 12,000 FT, WITH NO
         SIGNIFICANT WEATHER AND/OR OBSTRUCTIONS TO VISIBILITY.






USA.gov is the U.S. government's official web portal to all federal, state and local government web resources and services.